Вернуться в каталог

STARLINK-35197

АктивенСвязьVLEO
NORAD 66193·PAYLOAD·🇺🇸 United States

Запущен Oct 26, 2025 с Cape Canaveral Space Force Station

Loading…

Ближайшие Пролёты (ближайшие 24 часа)

TLE

СвежийSource: CelesTrak SupGP

Эпоха: Sep 14, 2026, 14:52 UTC

1 66193C 25243S   26257.61993056 -.00013079  00000+0 -38644-3 0  2578
2 66193  53.1604  86.9904 0001299  90.9709 128.4964 15.34395672    17

Отслеживайте STARLINK-35197 в реальном времени с AllMySat

Download on the App Store